timestamp,wind_dir_avg,wind_spd_avg,wind_spd_max_dir,wind_spd_gust,battery_voltage,lat,long
2022-09-29 00:04:00+00:00,193.0,4.06,195.0,4.45,12.49,47.59359,-54.27349
2022-09-29 00:14:01+00:00,196.0,4.96,200.0,5.39,12.49,47.59359,-54.27349
2022-09-29 00:24:01+00:00,191.0,4.43,191.0,4.84,12.49,47.59359,-54.27349
2022-09-29 00:34:01+00:00,197.0,5.29,201.0,5.71,12.49,47.59359,-54.27349
2022-09-29 00:44:01+00:00,211.0,7.73,216.0,8.92,12.49,47.59359,-54.27349
2022-09-29 00:54:01+00:00,216.0,8.38,218.0,9.54,12.49,47.59359,-54.27349
2022-09-29 01:04:01+00:00,218.0,8.01,226.0,10.24,12.49,47.59359,-54.27349
2022-09-29 01:14:01+00:00,211.0,7.56,216.0,8.54,12.49,47.59359,-54.27349
2022-09-29 01:24:01+00:00,216.0,8.44,225.0,11.52,12.49,47.59359,-54.27349
2022-09-29 01:34:01+00:00,220.0,10.4,227.0,11.99,12.49,47.59359,-54.27349
2022-09-29 01:44:01+00:00,215.0,9.2,224.0,11.73,12.49,47.59359,-54.27349
2022-09-29 01:54:01+00:00,220.0,8.56,224.0,10.25,12.49,47.59359,-54.27349
2022-09-29 02:04:01+00:00,216.0,7.6,225.0,8.98,12.49,47.59359,-54.27349
2022-09-29 02:14:00+00:00,217.0,6.9,222.0,8.73,12.49,47.59359,-54.27349
2022-09-29 02:24:00+00:00,220.0,7.96,222.0,9.63,12.49,47.59359,-54.27349
2022-09-29 02:34:00+00:00,217.0,6.05,218.0,6.81,12.49,47.59359,-54.27349
2022-09-29 02:44:00+00:00,240.0,4.23,239.0,4.64,12.49,47.59359,-54.27349
2022-09-29 02:54:00+00:00,237.0,4.33,242.0,5.15,12.49,47.59359,-54.27349
2022-09-29 03:04:00+00:00,230.0,5.02,231.0,5.93,12.49,47.59359,-54.27349
2022-09-29 03:14:00+00:00,232.0,0.64,257.0,2.88,12.49,47.59359,-54.27349
2022-09-29 03:24:00+00:00,315.0,0.01,0.0,0.0,12.49,47.59359,-54.27349
2022-09-29 03:34:00+00:00,339.0,4.94,339.0,5.49,12.49,47.59359,-54.27349
2022-09-29 03:44:00+00:00,324.0,7.1,324.0,7.6,12.49,47.59359,-54.27349
2022-09-29 03:54:00+00:00,328.0,4.36,328.0,4.76,12.49,47.59359,-54.27349
2022-09-29 04:04:00+00:00,346.0,2.9,341.0,3.28,12.49,47.59359,-54.27349
2022-09-29 04:14:00+00:00,350.0,4.09,358.0,4.74,12.41,47.59359,-54.27349
2022-09-29 04:24:00+00:00,349.0,4.5,346.0,5.16,12.41,47.59359,-54.27349
2022-09-29 04:34:00+00:00,11.0,2.97,13.0,3.33,12.41,47.59359,-54.27349
2022-09-29 04:44:00+00:00,6.0,2.04,2.0,2.55,12.41,47.59359,-54.27349
2022-09-29 04:54:00+00:00,16.0,1.56,15.0,1.68,12.41,47.59359,-54.27349
2022-09-29 05:04:00+00:00,353.0,0.89,349.0,1.14,12.41,47.59359,-54.27349
2022-09-29 05:14:00+00:00,24.0,0.58,21.0,0.76,12.41,47.59359,-54.27349
2022-09-29 05:24:00+00:00,327.0,1.51,325.0,1.68,12.41,47.59359,-54.27349
2022-09-29 05:34:00+00:00,301.0,1.81,307.0,1.98,12.41,47.59359,-54.27349
2022-09-29 05:44:00+00:00,255.0,1.39,255.0,1.56,12.41,47.59359,-54.27349
2022-09-29 05:54:00+00:00,203.0,1.08,204.0,1.45,12.41,47.59359,-54.27349
2022-09-29 06:04:00+00:00,235.0,1.42,236.0,1.48,12.41,47.59359,-54.27349
2022-09-29 06:14:01+00:00,225.0,1.92,226.0,2.05,12.41,47.59359,-54.27349
2022-09-29 06:24:01+00:00,222.0,2.08,225.0,2.36,12.41,47.59359,-54.27349
2022-09-29 06:34:01+00:00,269.0,3.05,274.0,3.22,12.41,47.59359,-54.27349
2022-09-29 06:44:01+00:00,268.0,3.13,269.0,3.63,12.41,47.59359,-54.27349
2022-09-29 06:54:01+00:00,282.0,3.87,285.0,4.23,12.41,47.59359,-54.27349
2022-09-29 07:04:01+00:00,260.0,2.69,263.0,3.05,12.41,47.59359,-54.27349
2022-09-29 07:14:01+00:00,215.0,1.98,213.0,2.28,12.33,47.59359,-54.27349
2022-09-29 07:24:01+00:00,226.0,1.06,229.0,1.5,12.33,47.59359,-54.27349
2022-09-29 07:34:01+00:00,233.0,2.87,234.0,3.2,12.33,47.59359,-54.27349
2022-09-29 07:44:01+00:00,262.0,2.44,264.0,2.94,12.33,47.59359,-54.27349
2022-09-29 07:54:01+00:00,232.0,2.36,227.0,2.84,12.33,47.59359,-54.27349
2022-09-29 08:04:01+00:00,304.0,3.88,304.0,4.42,12.33,47.59359,-54.27349
2022-09-29 08:14:01+00:00,325.0,3.61,331.0,4.04,12.33,47.59359,-54.27349
2022-09-29 08:24:01+00:00,330.0,4.34,330.0,5.04,12.33,47.59359,-54.27349
2022-09-29 08:34:01+00:00,321.0,6.1,321.0,6.67,12.33,47.59359,-54.27349
2022-09-29 08:44:01+00:00,330.0,6.69,330.0,7.22,12.33,47.59359,-54.27349
2022-09-29 08:54:01+00:00,332.0,5.63,331.0,6.19,12.33,47.59359,-54.27349
2022-09-29 09:04:01+00:00,331.0,4.66,333.0,5.41,12.33,47.59359,-54.27349
2022-09-29 09:14:01+00:00,326.0,3.27,327.0,3.43,12.25,47.59359,-54.27349
2022-09-29 09:24:01+00:00,316.0,2.6,319.0,2.73,12.25,47.59359,-54.27349
2022-09-29 09:34:01+00:00,316.0,3.04,318.0,3.45,12.25,47.59359,-54.27349
2022-09-29 09:44:01+00:00,320.0,2.08,329.0,2.49,12.25,47.59359,-54.27349
2022-09-29 09:54:01+00:00,323.0,2.47,325.0,2.79,12.25,47.59359,-54.27349
2022-09-29 10:04:01+00:00,295.0,2.14,301.0,2.36,12.25,47.59359,-54.27349
2022-09-29 10:14:00+00:00,287.0,3.18,289.0,3.66,12.33,47.59359,-54.27349
2022-09-29 10:24:00+00:00,296.0,3.82,301.0,4.27,12.33,47.59359,-54.27349
2022-09-29 10:34:00+00:00,292.0,3.48,293.0,4.18,12.33,47.59359,-54.27349
2022-09-29 10:44:00+00:00,297.0,4.0,296.0,4.45,12.33,47.59359,-54.27349
2022-09-29 10:54:00+00:00,280.0,4.35,281.0,4.72,12.33,47.59359,-54.27349
2022-09-29 11:04:00+00:00,276.0,2.64,280.0,3.16,12.33,47.59359,-54.27349
2022-09-29 11:14:00+00:00,234.0,2.68,233.0,3.33,12.73,47.59359,-54.27349
2022-09-29 11:24:00+00:00,255.0,2.81,262.0,3.65,12.73,47.59359,-54.27349
2022-09-29 11:34:00+00:00,236.0,0.63,236.0,1.34,12.73,47.59359,-54.27349
2022-09-29 11:44:00+00:00,171.0,1.38,174.0,1.59,12.73,47.59359,-54.27349
2022-09-29 11:54:00+00:00,189.0,1.93,187.0,2.16,12.73,47.59359,-54.27349
2022-09-29 12:04:00+00:00,180.0,2.44,179.0,2.65,12.73,47.59359,-54.27349
2022-09-29 12:14:00+00:00,204.0,3.3,209.0,3.58,13.92,47.59359,-54.27349
2022-09-29 12:24:00+00:00,225.0,3.8,226.0,4.15,13.92,47.59359,-54.27349
2022-09-29 12:34:00+00:00,239.0,3.93,242.0,4.27,13.92,47.59359,-54.27349
2022-09-29 12:44:00+00:00,233.0,3.41,231.0,3.86,13.92,47.59359,-54.27349
2022-09-29 12:54:00+00:00,231.0,3.19,231.0,3.33,13.92,47.59359,-54.27349
2022-09-29 13:04:00+00:00,206.0,2.88,212.0,3.24,13.92,47.59359,-54.27349
2022-09-29 13:14:01+00:00,193.0,2.88,192.0,3.2,13.76,47.59359,-54.27349
2022-09-29 13:24:01+00:00,196.0,3.31,196.0,3.49,13.76,47.59359,-54.27349
2022-09-29 13:34:01+00:00,205.0,3.9,201.0,4.22,13.76,47.59359,-54.27349
2022-09-29 13:44:01+00:00,197.0,4.73,196.0,4.98,13.76,47.59359,-54.27349
2022-09-29 13:54:01+00:00,192.0,5.21,193.0,5.56,13.76,47.59359,-54.27349
2022-09-29 14:04:01+00:00,193.0,4.82,193.0,5.23,13.76,47.59359,-54.27349
2022-09-29 14:14:00+00:00,197.0,3.73,198.0,3.99,13.68,47.59359,-54.27349
2022-09-29 14:24:00+00:00,208.0,3.53,211.0,3.84,13.68,47.59359,-54.27349
2022-09-29 14:34:00+00:00,208.0,3.81,204.0,4.26,13.68,47.59359,-54.27349
2022-09-29 14:44:00+00:00,214.0,4.21,215.0,4.9,13.68,47.59359,-54.27349
2022-09-29 14:54:00+00:00,220.0,3.11,228.0,3.52,13.68,47.59359,-54.27349
2022-09-29 15:04:00+00:00,220.0,2.83,221.0,3.31,13.68,47.59359,-54.27349
2022-09-29 15:14:00+00:00,244.0,1.79,247.0,2.06,13.84,47.59359,-54.27349
2022-09-29 15:24:00+00:00,217.0,2.29,217.0,2.42,13.84,47.59359,-54.27349
2022-09-29 15:34:00+00:00,203.0,3.35,203.0,3.67,13.84,47.59359,-54.27349
2022-09-29 15:44:00+00:00,214.0,3.07,216.0,3.37,13.84,47.59359,-54.27349
2022-09-29 15:54:00+00:00,208.0,3.32,211.0,3.69,13.84,47.59359,-54.27349
2022-09-29 16:04:00+00:00,198.0,4.06,199.0,4.46,13.84,47.59359,-54.27349
2022-09-29 16:14:00+00:00,194.0,3.94,193.0,4.41,13.76,47.59359,-54.27349
2022-09-29 16:24:00+00:00,211.0,2.32,210.0,2.8,13.76,47.59359,-54.27349
2022-09-29 16:34:00+00:00,197.0,2.82,198.0,3.36,13.76,47.59359,-54.27349
2022-09-29 16:44:00+00:00,203.0,3.0,204.0,3.37,13.76,47.59359,-54.27349
2022-09-29 16:54:00+00:00,189.0,3.38,186.0,3.74,13.76,47.59359,-54.27349
2022-09-29 17:04:00+00:00,212.0,2.29,212.0,2.73,13.76,47.59359,-54.27349
2022-09-29 17:14:01+00:00,203.0,3.57,202.0,4.54,13.84,47.59359,-54.27349
2022-09-29 17:24:01+00:00,197.0,4.62,196.0,5.38,13.84,47.59359,-54.27349
2022-09-29 17:34:01+00:00,207.0,5.4,203.0,6.29,13.84,47.59359,-54.27349
2022-09-29 17:44:01+00:00,208.0,5.1,208.0,5.6,13.84,47.59359,-54.27349
2022-09-29 17:54:01+00:00,213.0,4.25,212.0,5.07,13.84,47.59359,-54.27349
2022-09-29 18:04:01+00:00,217.0,4.33,223.0,4.76,13.84,47.59359,-54.27349
2022-09-29 19:14:01+00:00,237.0,4.96,238.0,5.46,13.44,47.59359,-54.27349
2022-09-29 19:24:01+00:00,235.0,4.82,237.0,5.21,13.44,47.59359,-54.27349
2022-09-29 19:34:01+00:00,228.0,4.13,232.0,5.01,13.44,47.59359,-54.27349
2022-09-29 19:44:01+00:00,221.0,4.05,232.0,4.57,13.44,47.59359,-54.27349
2022-09-29 19:54:01+00:00,225.0,4.38,228.0,5.19,13.44,47.59359,-54.27349
2022-09-29 20:04:01+00:00,224.0,4.45,227.0,5.34,13.44,47.59359,-54.27349
2022-09-29 20:14:00+00:00,214.0,5.03,211.0,5.78,13.21,47.59359,-54.27349
2022-09-29 20:24:00+00:00,236.0,6.31,241.0,8.49,13.21,47.59359,-54.27349
2022-09-29 20:34:00+00:00,240.0,7.71,245.0,10.58,13.21,47.59359,-54.27349
2022-09-29 20:44:00+00:00,245.0,8.4,248.0,10.89,13.21,47.59359,-54.27349
2022-09-29 20:54:00+00:00,248.0,9.54,249.0,11.08,13.21,47.59359,-54.27349
2022-09-29 21:04:00+00:00,246.0,7.38,255.0,10.73,13.21,47.59359,-54.27349
2022-09-29 21:14:01+00:00,244.0,7.33,248.0,10.43,12.73,47.59359,-54.27349
2022-09-29 21:24:01+00:00,251.0,9.17,252.0,10.99,12.73,47.59359,-54.27349
2022-09-29 21:34:01+00:00,250.0,10.45,249.0,11.12,12.73,47.59359,-54.27349
2022-09-29 21:44:01+00:00,252.0,8.38,258.0,10.61,12.73,47.59359,-54.27349
2022-09-29 21:54:01+00:00,258.0,9.6,256.0,10.78,12.73,47.59359,-54.27349
2022-09-29 22:04:01+00:00,252.0,10.55,252.0,11.33,12.73,47.59359,-54.27349
2022-09-29 22:14:00+00:00,264.0,8.3,268.0,10.57,12.57,47.59359,-54.27349
2022-09-29 22:24:00+00:00,263.0,9.68,261.0,10.71,12.57,47.59359,-54.27349
2022-09-29 22:34:00+00:00,260.0,9.53,258.0,10.73,12.57,47.59359,-54.27349
2022-09-29 22:44:00+00:00,257.0,9.14,256.0,10.64,12.57,47.59359,-54.27349
2022-09-29 22:54:00+00:00,258.0,9.41,256.0,10.94,12.57,47.59359,-54.27349
2022-09-29 23:04:00+00:00,255.0,8.64,258.0,10.44,12.57,47.59359,-54.27349
2022-09-29 23:14:00+00:00,264.0,9.91,264.0,10.77,12.49,47.59359,-54.27349
2022-09-29 23:24:00+00:00,253.0,7.52,261.0,10.2,12.49,47.59359,-54.27349
2022-09-29 23:34:00+00:00,251.0,4.3,264.0,5.57,12.49,47.59359,-54.27349
2022-09-29 23:44:00+00:00,259.0,10.14,262.0,10.82,12.49,47.59359,-54.27349
2022-09-29 23:54:00+00:00,259.0,8.81,258.0,10.68,12.49,47.59359,-54.27349
